Overview Statistics Trail Chart Weather Telemetry Raw packets
 

This is the latest recevied weather packets stored in our database for station/object N6GPM. If no packets are shown the sender has not sent any weather packets the latest 10 day(s).

<< 21 22 23 24 25 26 27 >>
Time Temp. Humidity Pressure Rain* Wind** Luminosity Snow
1788533515 17.22° C 80% 1017.6 hPa 0 mm - 141 W/m² -
1788533210 16.67° C 81% 1017.6 hPa 0 mm - 119 W/m² -
1788532906 17.22° C 81% 1017.5 hPa 0 mm - 102 W/m² -
1788532601 17.22° C 80% 1017.4 hPa 0 mm - 99 W/m² -
1788532298 16.67° C 81% 1017.4 hPa 0 mm - 99 W/m² -
1788531994 16.11° C 82% 1017.3 hPa 0 mm - 99 W/m² -
1788531690 16.67° C 82% 1017.5 hPa 0 mm - 94 W/m² -
1788531384 16.67° C 81% 1017.3 hPa 0 mm - 87 W/m² -
1788531080 16.67° C 81% 1017.2 hPa 0 mm - 76 W/m² -
1788530776 16.11° C 83% 1017.3 hPa 0 mm - 64 W/m² -
1788530470 16.11° C 84% 1017.2 hPa 0 mm - 55 W/m² -
1788530169 16.11° C 87% 1017 hPa 0 mm - 47 W/m² -
1788529865 15.56° C 88% 1017.2 hPa 0 mm - 34 W/m² -
1788529560 15° C 89% 1017.3 hPa 0 mm - 26 W/m² -
1788529254 15° C 89% 1017 hPa 0 mm - 19 W/m² -
1788528949 15° C 90% 1016.9 hPa 0 mm - 13 W/m² -
1788528645 15° C 90% 1017 hPa 0 mm - 8 W/m² -
1788528339 15° C 90% 1016.9 hPa 0 mm - 4 W/m² -
1788528034 15° C 90% 1016.9 hPa 0 mm - 2 W/m² -
1788527753 15° C 89% 1016.8 hPa 0 mm - 1 W/m² -
1788527429 15° C 89% 1016.9 hPa 0 mm - 0 W/m² -
1788527129 15° C 89% 1016.8 hPa 0 mm - 0 W/m² -
1788526823 15° C 90% 1016.9 hPa 0 mm - 0 W/m² -
1788526520 15° C 90% 1016.7 hPa 0 mm - 0 W/m² -
1788526215 15° C 89% 1016.9 hPa 0 mm - 0 W/m² -

* Rain latest hour (hover to see other rain measurements)
** Current wind speed in m/s (hover to see current wind gust speed)